This is the latest recevied weather packets stored in our database for station/object KC3ELT-10. If no packets are shown the sender has not sent any weather packets the latest 10 day(s).
| Time | Temp. | Humidity | Pressure | Rain* | Wind** | Luminosity | Snow |
|---|---|---|---|---|---|---|---|
| 1777952579 | 14.44° C | 56% | 1003.6 hPa | 0 mm | 0.89 m/s, 175° | - | - |
| 1777952279 | 15° C | 55% | 1003.6 hPa | 0 mm | 0.89 m/s, 175° | - | - |
| 1777951979 | 15° C | 55% | 1003.6 hPa | 0 mm | 1.79 m/s, 155° | - | - |
| 1777951679 | 15° C | 55% | 1003.7 hPa | 0 mm | 1.34 m/s, 183° | - | - |
| 1777951379 | 15° C | 54% | 1003.7 hPa | 0 mm | 1.79 m/s, 151° | - | - |
| 1777951079 | 15° C | 54% | 1003.7 hPa | 0 mm | 4.92 m/s, 212° | - | - |
| 1777950779 | 15.56° C | 54% | 1003.9 hPa | 0 mm | 0.89 m/s, 168° | - | - |
| 1777950479 | 15.56° C | 53% | 1003.9 hPa | 0 mm | 0.89 m/s, 160° | - | - |
| 1777950179 | 15.56° C | 53% | 1003.9 hPa | 0 mm | 1.79 m/s, 120° | - | - |
| 1777949879 | 15.56° C | 52% | 1003.9 hPa | 0 mm | 1.34 m/s, 183° | - | - |
| 1777949579 | 15.56° C | 52% | 1003.9 hPa | 0 mm | 1.34 m/s, 162° | - | - |
| 1777949279 | 16.11° C | 52% | 1003.9 hPa | 0 mm | 2.24 m/s, 162° | - | - |
| 1777948979 | 16.11° C | 51% | 1004.1 hPa | 0 mm | 2.68 m/s, 174° | - | - |
| 1777948679 | 16.11° C | 50% | 1004.1 hPa | 0 mm | 3.13 m/s, 150° | - | - |
| 1777948379 | 16.11° C | 51% | 1004.1 hPa | 0 mm | 2.68 m/s, 138° | - | - |
| 1777948079 | 16.11° C | 50% | 1004.2 hPa | 0 mm | 0.89 m/s, 178° | - | - |
| 1777947779 | 16.11° C | 51% | 1004.2 hPa | 0 mm | 3.58 m/s, 150° | - | - |
| 1777947479 | 16.11° C | 51% | 1004.2 hPa | 0 mm | 1.34 m/s, 162° | - | - |
| 1777947179 | 16.11° C | 50% | 1004.4 hPa | 0 mm | 0.89 m/s, 181° | - | - |
| 1777946879 | 16.67° C | 49% | 1004.4 hPa | 0 mm | 1.34 m/s, 209° | - | - |
| 1777946579 | 16.67° C | 49% | 1004.4 hPa | 0 mm | 1.79 m/s, 181° | - | - |
| 1777946279 | 16.67° C | 49% | 1004.1 hPa | 0 mm | 1.34 m/s, 142° | - | - |
| 1777945979 | 16.67° C | 49% | 1004.1 hPa | 0 mm | 2.68 m/s, 183° | - | - |
| 1777945679 | 16.67° C | 48% | 1004.1 hPa | 0 mm | 0.89 m/s, 199° | - | - |
| 1777945379 | 16.67° C | 49% | 1004.1 hPa | 0 mm | 1.34 m/s, 167° | - | - |
* Rain latest hour (hover to see other rain measurements)
** Current wind speed in m/s (hover to see current wind gust speed)